Weather Roundup
Issued by NWS Chicago, IL

Home | Current Version | Previous Version | Text Only | Print | Product List | Glossary Off
Versions: 1 2 3 4 5 6 7 8 9 10 11 12 13 14 15 16 17 18 19 20 21 22 23 24 25 26 27 28 29 30 31 32 33 34 35 36 37 38 39 40 41 42 43 44 45 46 47 48 49 50

000
NZUS59 KLOT 212204
HRRLOT

CHICAGO AREA WEATHER ROUNDUP
NATIONAL WEATHER SERVICE CHICAGO/ROMEOVILLE IL
500 PM CDT FRI JUL 21 2017

NOTE: "FAIR" INDICATES FEW OR NO CLOUDS BELOW 12,000 FEET WITH NO
SIGNIFICANT WEATHER AND/OR OBSTRUCTIONS TO VISIBILITY.

* THESE STATIONS ARE NOT UNDER NWS QUALITY CONTROL. THEY ALSO MAY NOT
  REPORT WEATHER SUCH AS PRECIPITATION OR FOG.

ILZ005-006-012>014-019>023-212300-
NORTHEAST ILLINOIS

CITY           SKY/WX    TMP DP  RH WIND       PRES   REMARKS
OHARE          TSTM      80  73  79 NE14      29.94R FOG     HX  84
MIDWAY         PTSUNNY   87  70  56 S10       29.91F HX  92
AURORA         CLOUDY    87  76  69 SE7       29.92F HX  97
LANSING*       CLOUDY    84  70  62 S6        29.94S HX  88
JOLIET*          N/A     88  78  71 SE6       29.91F HX 101
WAUKEGAN       LGT RAIN  74  73  97 E9        29.93F
DUPAGE AIRPORT CLOUDY    77  71  82 N21       29.94R THUNDER
WHEELING       TSTM      77  75  93 CALM      29.96R
MORRIS*          N/A     87  78  73 SE10      29.90F HX 100
LEWIS AIRPORT*   N/A     86  73  64 SE9       29.92F HX  93
NORTHERLY ISL    N/A     76  70  82 CALM        N/A
$$

WIZ051-052-058>065-066-070>072-212300-
SOUTHEAST WISCONSIN

CITY           SKY/WX    TMP DP  RH WIND       PRES   REMARKS
MILWAUKEE      LGT RAIN  77  73  87 E7        29.93F
KENOSHA*         N/A     76  71  85 E10       29.94F
RACINE*        PTSUNNY   74  73  97 SE13      29.94F
WAUKESHA       PTSUNNY   73  72  94 NE6       29.94F
$$

INZ001>003-010>013-019-020-212300-
NORTHWEST INDIANA

CITY           SKY/WX    TMP DP  RH WIND       PRES   REMARKS
GARY*          PTSUNNY   86  70  58 S6        29.94F HX  90
MICHIGAN CITY* NOT AVBL
RENSSELAER*    NOT AVBL
VALPARAISO       N/A     85  74  69 S8        29.95F HX  92
$$

LMZ740>746-212300-
SOUTHERN LAKE MICHIGAN

STATION/POSITION TIME  SKY/WX   TEMP WIND        PRES    VSBY
                                AIR  DIR/SP/G
                 (UTC)          (F)  (DEG/KT/KT) (MB)    (MI)
HARRISON CRIB    2140            78   90/ 12/ 13   N/A
BURNHAM HARBOR   2200            76                N/A
CALUMET HARBOR   2130            80   90/  7/ 11 1013.2S
BURNS HARBOR     2140            86  200/  9/ 10 1013.9F
MICHIGAN CITY    2140            78   20/  9/ 10   N/A
$$

ABBREVIATIONS USED IN REMARKS
   TC - TEMPERATURE IN CELSIUS
  WCI - WIND CHILL INDEX
   HX - HEAT INDEX
  VSB - VISIBILITY
$$




USA.gov is the U.S. government's official web portal to all federal, state and local government web resources and services.